Flag for United Kingdom Weather past 2 weeks in Oldham, England, United Kingdom

Now
57 °F

Scattered showers. Passing clouds.


Feels Like: 57 °F
Forecast: 44 / 60 °F
Wind: 2 mph from North

Location: Manchester Airport

Current Time: Sep 1, 2015 at 8:11:29 PM

Latest Report: Sep 1, 2015 at 7:20 PM


Visibility: N/A

Pressure: 30.09 "Hg

Humidity: 77%

Dew point: 50 °F

Location of OldhamLocation

Historic Weather in Oldham — Graph

°F

Oldham temperature yesterday

Maximum temperature yesterday: 61 °F (at 1:50 PM)
Minimum temperature yesterday: 54 °F (at 6:20 AM)
Average temperature yesterday: 57 °F

Past Weeks' High & Low Weather Summary

 TemperatureHumidityPressure
High77 °F (Aug 23, 1:20 PM)100% (Aug 18, 4:50 AM)30.09 "Hg (Aug 18, 4:50 AM)
Low46 °F (Aug 18, 4:50 AM)43% (Aug 27, 4:50 PM)29.45 "Hg (Aug 23, 1:50 PM)
Average60 °F80%29.86 "Hg
* Reported Aug 17 6:20 PM — Sep 1 6:50 PM, Oldham, Weather by CustomWeather, © 2015

Note: Actual official high and low records may vary slightly from our data, if they occured in-between our weather recording intervals... More about our weather records

Advertising

Oldham weather history for previous 24 hours

 ConditionsComfort  
Time TempWeatherWind HumidityBarometerVisibility
6:50 PM
Tue, Sep 1
55 °FRain showers. Scattered clouds.3 mph88%30.09 "HgN/A
6:20 PM55 °FHeavy rain. Passing clouds.3 mph82%30.09 "HgN/A
5:50 PM55 °FPassing clouds.3 mph82%30.09 "HgN/A
5:20 PM55 °FScattered showers. Passing clouds.3 mph77%30.09 "HgN/A
4:50 PM55 °FScattered clouds.8 mph82%30.09 "HgN/A
4:20 PM57 °FSprinkles. Scattered clouds.9 mph82%30.09 "HgN/A
3:50 PM57 °FSprinkles. Passing clouds.6 mph77%30.09 "HgN/A
3:20 PM57 °FSprinkles. Passing clouds.7 mph82%30.09 "HgN/A
2:50 PM59 °FSprinkles. Scattered clouds.10 mph82%30.09 "HgN/A
2:20 PM55 °FSprinkles. Scattered clouds.8 mph82%30.09 "HgN/A
1:50 PM61 °FScattered showers. Scattered clouds.10 mph77%30.09 "HgN/A
1:20 PM55 °FScattered showers. Scattered clouds.6 mph88%30.09 "HgN/A
12:50 PM57 °FSprinkles. Scattered clouds.15 mph77%30.09 "HgN/A
12:20 PM61 °FScattered showers. Scattered clouds.9 mph68%30.09 "HgN/A
11:50 AM59 °FScattered showers. Scattered clouds.6 mph72%30.09 "HgN/A
11:20 AM59 °FScattered showers. Scattered clouds.9 mph72%30.09 "HgN/A
10:50 AM59 °FPassing clouds.7 mph77%30.09 "HgN/A
10:20 AM55 °FPartly sunny.7 mph82%30.09 "HgN/A
9:50 AM57 °FPassing clouds.6 mph82%30.09 "HgN/A
9:20 AM57 °FPassing clouds.6 mph77%30.09 "HgN/A
8:50 AM57 °FPassing clouds.6 mph77%30.07 "HgN/A
8:20 AM55 °FPassing clouds.3 mph88%30.07 "HgN/A
7:50 AM54 °FPassing clouds.3 mph94%30.07 "HgN/A
7:20 AM54 °FCool.5 mph88%30.07 "HgN/A
6:50 AM54 °FPassing clouds.5 mph88%30.07 "HgN/A
6:20 AM52 °FPassing clouds.6 mph94%30.07 "HgN/A
5:50 AM54 °FPassing clouds.6 mph88%30.04 "HgN/A
4:20 AM54 °FClear.5 mph94%30.04 "Hg10 mi
3:50 AM54 °FCool.3 mph94%30.04 "HgN/A
3:20 AM54 °FSprinkles. Passing clouds.3 mph94%30.07 "Hg6 mi
2:50 AM54 °FSprinkles. Passing clouds.5 mph94%30.07 "HgN/A
2:20 AM54 °FMostly cloudy.3 mph94%30.07 "Hg6 mi
1:50 AM54 °FPassing clouds.3 mph94%30.07 "HgN/A
1:20 AM54 °FPassing clouds.6 mph94%30.04 "HgN/A
12:50 AM54 °FCool.5 mph94%30.04 "HgN/A
12:20 AM54 °FPassing clouds.5 mph94%30.04 "HgN/A
11:50 PM
Mon, Aug 31
55 °FPassing clouds.7 mph88%30.04 "HgN/A
10:50 PM55 °FPassing clouds.7 mph94%30.04 "HgN/A
10:20 PM55 °FPartly cloudy.3 mph100%30.04 "Hg6 mi
9:50 PM55 °FPassing clouds.3 mph100%30.04 "Hg5 mi
9:20 PM55 °FPassing clouds.6 mph100%30.04 "Hg5 mi
8:50 PM55 °FScattered clouds.6 mph100%30.04 "Hg5 mi
8:20 PM55 °FLight rain. Passing clouds.6 mph100%30.01 "Hg4 mi
Weather by CustomWeather, © 2015

See weather overviewHow to use our weather pages